Regional Weather Roundup
Issued by NWS

Home | Current Version | Previous Version | Text Only | Print | Product List | Glossary Off
Versions: 1 2 3 4 5 6 7 8 9 10 11 12 13 14 15 16 17 18 19 20 21 22 23 24 25 26 27

000
ASUS45 KSLC 220410
RWRUT

UTAH REGIONAL WEATHER ROUNDUP
NATIONAL WEATHER SERVICE SALT LAKE CITY UT
1000 PM MDT FRI JUL 21 2017

UTZ001>011-023>025-220500-

NORTHERN UTAH

CITY           SKY/WX    TMP DP  RH WIND       PRES   REMARKS
BRIGHAM CITY   CLEAR     83  30  14 NW8       30.03R
HILL AFB       CLEAR     80  46  29 E8        30.06R
LOGAN          CLEAR     71  49  45 N7        30.06R
OGDEN          CLEAR     81  45  28 CALM      30.02R
SALT LAKE CITY PTCLDY    88  51  28 CALM      30.00R
TOOELE VALLEY  CLEAR     72  50  46 SW6       30.02R
WENDOVER       CLEAR     85  39  19 N3        30.01R
HEBER CITY     PTCLDY    70  52  52 CALM      30.14R
WEST JORDAN    CLEAR     81  55  40 SW7       30.04S

$$

UTZ011>015-024>027-220500-

CENTRAL/NORTHEAST UTAH

CITY           SKY/WX    TMP DP  RH WIND       PRES   REMARKS
PROVO AIRPORT  PTCLDY    81  52  36 SE8       30.05R
MOAB/CANYONLAN   N/A     69  66  90 E6        30.16
DELTA          CLEAR     82  46  28 E12       30.04R
PRICE          CLOUDY    68  60  75 E12       30.24R
ROOSEVELT      CLOUDY    70  54  56 N6        30.22R
VERNAL         CLOUDY    68  53  58 SW7       30.20R

$$

UTZ013>016-019>022-027-220500-

SOUTHERN UTAH

CITY           SKY/WX    TMP DP  RH WIND       PRES   REMARKS
BRYCE CANYON   CLOUDY    63  53  70 NE7       30.34R
CEDAR CITY     CLOUDY    72  53  51 SE9       30.14F
MILFORD        PTCLDY    82  51  34 S10       30.06R
ST GEORGE      PTCLDY    92  55  28 SE12      29.91R HX  90
HANKSVILLE     CLOUDY    73  59  60 NE12      30.20R
BLANDING       CLOUDY    73  54  52 N7G13     30.28R

$$

REGIONAL REPORTS     COLORADO/ARIZONA

CITY           SKY/WX    TMP DP  RH WIND       PRES   REMARKS
CRAIG, CO      CLOUDY    63  53  70 E10       30.27R
GRAND JUNCTION LGT RAIN  67  63  87 SE15      30.20F
RIFLE, CO      CLOUDY    64  62  93 N3        30.28R
MONTROSE, CO   CLOUDY    67  56  67 N5        30.30R
CORTEZ, CO     CLOUDY    70  58  65 E3        30.20R
COLORADO CITY    N/A     81  54  39 S6        30.13R
PAGE, AZ       PTCLDY    86  53  32 CALM      30.05R
GRAND CANYON   PTCLDY    68  57  68 S3        30.27R
KINGMAN, AZ    CLEAR     86  54  33 S7        30.00R
FLAGSTAFF, AZ  CLOUDY    59  58  96 CALM      30.30R

$$

REGIONAL REPORTS    NEVADA/IDAHO/WYOMING

CITY           SKY/WX    TMP DP  RH WIND       PRES   REMARKS
LAS VEGAS, NV  PTCLDY   100  43  14 SW9       29.83R HX  96
ELY, NY        PTCLDY    76  41  28 SE6       30.14R
ELKO, NV       CLEAR     82  21  10 E3        30.07R
POCATELLO, ID  CLEAR     77  30  17 S12       30.06R
BURLEY, ID     CLEAR     68  49  50 S6        30.05R
FORT BRIDGER,    N/A     73  33  23 N5        30.29R
EVANSTON, WY   CLOUDY    71  40  32 N8        30.27R
ROCK SPRINGS,  CLOUDY    72  53  51 S8        30.24R
KEMMERER, WY     N/A    N/A N/A N/A N8        30.30R

$$




USA.gov is the U.S. government's official web portal to all federal, state and local government web resources and services.